FENGYUN 1C DEB, 37008

Orbit data source: Space-Track

FENGYUN 1C DEB, 37008 is space debris in SSO originally from a launch on Mon, 10 May 1999 UTC launched from the Taiyaun Space Center, China (TSC). Fengyun 1C debris stems from the Chinese weather satellite Fengyun-1C, which was intentionally destroyed by a Chinese anti-satellite missile in 2007. This event dramatically increased the amount of space debris, with thousands of trackable fragments posing hazards to satellites and human spaceflight. The Fengyun 1C debris cloud has become a focal point in discussions about space sustainability and the need for international regulations to prevent the creation of new debris.

Loading next visibility...
Identifier
37008, 1999-025ECQ
Orbit
SSO
Country
Flag of CNCN / PRC
Related business
Manufacturer
Unknown
Mission
Spacecraft
Bus & Motor
Unknown
Mass
Unknown
Launch date (UTC)
1999-05-10 (27 years ago)
Launch vehicle
Unknown
Launch site
Taiyaun Space Center, China (TSC)
Object type
Payload
Rocket body
Debris
Shape & HBR
Unknown shape, 0.1 m
Radar Cross Section
Medium (>0.1 m² and <1 m²)

Expand to show TLE details & history
Last TLE update: 1 day ago

TLE from 1 day ago
0 FENGYUN 1C DEB
1 37008U 99025ECQ 26207.80924663  .00001041  00000-0  62324-3 0  9994
2 37008  99.1540 334.6279 0058058 347.8437  12.1328 14.08559576634969
Epoch: 2026-07-26T19:25Z
TLE epoch observation values (Epoch: 2026-07-26T19:25:18.908Z)
Latitude
0.00001°
Longitude
98.79727°
Altitude
826.083 km
Speed
7.461 km/s
True Right ascension
22h 18m 30s
True Declination
0° 00' 00"
Sunlit
Object was in full shadow at epoch
Visualization orbit readout
Latitude
Unknown
Longitude
Unknown
Altitude
Unknown
Speed
Unknown
Apparent Right ascension
Unknown
Apparent Declination
Unknown
Sunlit
N/A
Visualization observer readout
Local Sidereal Time
09:09:35
Azimuth
Unknown
Elevation
Unknown
Doppler factor
Unknown
Orbital elements
Apogee altitude
903.532 km
Perigee altitude
819.469 km
Semi-major axis
7,239.637 km
Eccentricity
0.00581
Inclination
99.154°
RAAN
334.6279°
Arg. of periapsis
347.8437°
True anomaly
12.27363°
Mean anomaly
12.1328°
Eccentric anomaly
12.20311°
Mean motion
3.52345 °/min
Orbital period
102.17 mins
BSTAR
0.00062324
Loading maneuver chart data...
Computing Atmospheric mass density...

Documentation

Showing up to 5 results
|